Date String (YYYY-MM-DD hh:mm:ss) UTC,Instrument flags,absolute air pressure of the measurement (hPa),sample flow rate (lpm),inlet stack bypass flow (lpm),air temperature of the measurement (°C),ambient temperature measured by the external sensor (°C),aerosol sample conditioner tube jacket temperature (°C),OPC LED temperature (°C),internal box temperature (°C),relative humidity of the measurement (%),span deviation,mass concentration of particles derived from Lorenz-Mie calculation of OPC scattering (μg/m³),mass concentration of particles derived from Lorenz-Mie calculation of OPC scattering (μg/m³),mass concentration of particles derived from Lorenz-Mie calculation of OPC scattering (μg/m³)
DateTimeUTC,F1_M11,P_M11,Q1_M11,Q2_M11,T1_M11,T2_M11,T3_M11,T4_M11,T5_M11,U1_M11,ZSPAN_M11,X0_M11,X2_M11,X1_M11
2024-03-01 20:00:00,SystemResetWarning,0823.0,5.00,000.00,023.8,023.2,000.0,031.8,025.5,08.5,0000.0,0006.49,0002.05,0001.00
2024-03-01 20:01:00,SystemResetWarning,0823.0,5.00,000.00,023.9,023.3,000.0,031.9,025.5,08.5,0000.0,0006.45,0002.03,0001.00
2024-03-01 20:02:00,SystemResetWarning,0823.0,4.99,000.00,023.9,023.3,000.0,031.9,025.5,08.5,0000.0,0006.37,0001.99,0001.00
2024-03-01 20:03:00,SystemResetWarning,0823.1,5.00,000.00,023.9,023.3,000.0,031.9,025.6,08.4,0000.0,0006.33,0001.95,0000.99
2024-03-01 20:04:00,SystemResetWarning,0822.4,5.00,000.00,023.9,023.3,000.0,031.9,025.6,08.3,0000.0,0006.32,0001.93,0000.99
2024-03-01 20:05:00,SystemResetWarning,0822.4,5.00,000.00,023.9,023.3,000.0,031.9,025.6,08.4,0000.0,0007.06,0001.95,0001.00
2024-03-01 20:06:00,SystemResetWarning,0822.4,5.00,000.00,024.0,023.4,000.0,031.9,025.7,08.4,0000.0,0006.91,0001.92,0001.00
2024-03-01 20:07:00,SystemResetWarning,0822.4,5.01,000.00,024.0,023.4,000.0,032.0,025.7,08.4,0000.0,0007.10,0002.01,0001.02
2024-03-01 20:08:00,SystemResetWarning,0822.4,5.01,000.00,024.0,023.4,000.0,032.0,025.7,08.3,0000.0,0007.75,0002.07,0001.04
2024-03-01 20:09:00,SystemResetWarning,0822.4,5.00,000.00,024.0,023.4,000.0,032.0,025.7,08.2,0000.0,0007.91,0002.02,0001.05
2024-03-01 20:10:00,SystemResetWarning,0822.5,4.99,000.00,024.0,023.4,000.0,032.0,025.7,08.3,0000.0,0007.45,0002.01,0001.05
2024-03-01 20:11:00,SystemResetWarning,0822.4,4.99,000.00,024.0,023.4,000.0,032.0,025.7,08.4,0000.0,0007.03,0002.08,0001.07
2024-03-01 20:12:00,SystemResetWarning,0822.4,4.99,000.00,024.1,023.5,000.0,032.0,025.7,08.4,0000.0,0006.71,0002.07,0001.07
2024-03-01 20:13:00,SystemResetWarning,0822.3,5.00,000.00,024.1,023.5,000.0,032.0,025.7,08.2,0000.0,0006.74,0002.12,0001.08
2024-03-01 20:14:00,SystemResetWarning,0822.4,5.00,000.00,024.1,023.5,000.0,032.1,025.8,08.1,0000.0,0006.76,0002.15,0001.08
2024-03-01 20:15:00,SystemResetWarning,0822.3,5.00,000.00,024.1,023.5,000.0,032.1,025.8,08.0,0000.0,0006.70,0002.12,0001.09
2024-03-01 20:16:00,SystemResetWarning,0822.2,5.00,000.00,024.1,023.5,000.0,032.1,025.9,07.9,0000.0,0006.96,0002.10,0001.09
2024-03-01 20:17:00,SystemResetWarning,0822.3,4.99,000.00,024.1,023.5,000.0,032.1,025.9,07.9,0000.0,0007.51,0002.10,0001.09
2024-03-01 20:18:00,SystemResetWarning,0822.3,4.99,000.00,024.1,023.5,000.0,032.1,025.9,07.8,0000.0,0007.45,0002.06,0001.10
2024-03-01 20:19:00,SystemResetWarning,0822.2,5.00,000.00,024.2,023.5,000.0,032.2,025.9,07.8,0000.0,0007.16,0002.08,0001.10
2024-03-01 20:20:00,SystemResetWarning,0822.2,5.01,000.00,024.2,023.5,000.0,032.2,025.9,07.9,0000.0,0006.80,0002.08,0001.10
2024-03-01 20:21:00,SystemResetWarning,0822.2,5.01,000.00,024.2,023.5,000.0,032.2,025.9,07.8,0000.0,0007.35,0002.14,0001.12
2024-03-01 20:22:00,SystemResetWarning,0822.3,5.00,000.00,024.2,023.5,000.0,032.2,025.9,07.8,0000.0,0007.14,0002.09,0001.11
2024-03-01 20:23:00,SystemResetWarning,0822.4,5.00,000.00,024.2,023.6,000.0,032.2,025.9,07.9,0000.0,0007.44,0002.07,0001.09
2024-03-01 20:24:00,SystemResetWarning,0822.3,5.00,000.00,024.2,023.6,000.0,032.2,025.9,07.9,0000.0,0007.44,0002.01,0001.09
2024-03-01 20:25:00,SystemResetWarning,0822.3,5.00,000.00,024.2,023.6,000.0,032.2,026.0,07.8,0000.0,0007.48,0002.05,0001.10
2024-03-01 20:26:00,SystemResetWarning,0822.3,5.00,000.00,024.2,023.6,000.0,032.2,026.0,07.8,0000.0,0007.49,0002.07,0001.10
2024-03-01 20:27:00,SystemResetWarning,0822.3,5.00,000.00,024.2,023.6,000.0,032.3,026.0,07.8,0000.0,0006.84,0002.11,0001.11
2024-03-01 20:28:00,SystemResetWarning,0822.2,5.00,000.00,024.3,023.6,000.0,032.3,026.0,08.0,0000.0,0006.03,0002.09,0001.10
2024-03-01 20:29:00,SystemResetWarning,0822.2,5.00,000.00,024.3,023.6,000.0,032.3,026.0,07.9,0000.0,0006.04,0002.08,0001.09
2024-03-01 20:30:00,SystemResetWarning,0822.2,5.00,000.00,024.3,023.7,000.0,032.3,026.0,08.1,0000.0,0005.70,0002.05,0001.07
2024-03-01 20:31:00,SystemResetWarning,0822.2,5.00,000.00,024.3,023.7,000.0,032.3,026.0,08.0,0000.0,0005.83,0002.08,0001.06
2024-03-01 20:32:00,SystemResetWarning,0822.2,5.00,000.00,024.3,023.7,000.0,032.3,026.0,07.8,0000.0,0007.14,0002.06,0001.05
2024-03-01 20:33:00,SystemResetWarning,0822.2,5.00,000.00,024.3,023.7,000.0,032.3,026.1,07.7,0000.0,0007.67,0002.03,0001.04
2024-03-01 20:34:00,SystemResetWarning,0822.2,5.00,000.00,024.3,023.7,000.0,032.4,026.1,07.6,0000.0,0007.38,0002.01,0001.04
2024-03-01 20:35:00,SystemResetWarning,0822.2,5.00,000.00,024.3,023.7,000.0,032.4,026.1,07.5,0000.0,0007.34,0002.00,0001.03
2024-03-01 20:36:00,SystemResetWarning,0822.1,5.00,000.00,024.4,023.7,000.0,032.4,026.1,07.4,0000.0,0007.28,0001.95,0001.02
2024-03-01 20:37:00,SystemResetWarning,0822.0,5.00,000.00,024.4,023.7,000.0,032.4,026.1,07.5,0000.0,0007.33,0001.95,0001.02
2024-03-01 20:38:00,SystemResetWarning,0822.0,5.00,000.00,024.4,023.7,000.0,032.4,026.1,07.7,0000.0,0007.08,0001.92,0001.02
2024-03-01 20:39:00,SystemResetWarning,0822.0,5.00,000.00,024.4,023.7,000.0,032.4,026.1,07.6,0000.0,0007.12,0001.92,0001.02
2024-03-01 20:40:00,SystemResetWarning,0822.0,5.00,000.00,024.4,023.7,000.0,032.4,026.1,07.7,0000.0,0007.25,0001.95,0001.02
2024-03-01 20:41:00,SystemResetWarning,0822.0,5.00,000.00,024.4,023.7,000.0,032.5,026.1,07.7,0000.0,0007.09,0001.92,0001.02
2024-03-01 20:42:00,SystemResetWarning,0822.0,5.01,000.00,024.4,023.7,000.0,032.5,026.1,07.7,0000.0,0006.95,0001.88,0001.02
2024-03-01 20:43:00,SystemResetWarning,0822.1,5.00,000.00,024.4,023.7,000.0,032.5,026.1,07.7,0000.0,0005.52,0001.93,0001.01
2024-03-01 20:44:00,SystemResetWarning,0822.1,5.01,000.00,024.4,023.8,000.0,032.5,026.2,07.7,0000.0,0004.68,0001.96,0001.02
2024-03-01 20:45:00,SystemResetWarning,0822.1,5.00,000.00,024.4,023.8,000.0,032.5,026.2,07.8,0000.0,0005.02,0002.10,0001.02
2024-03-01 20:46:00,SystemResetWarning,0822.0,5.00,000.00,024.4,023.8,000.0,032.5,026.2,07.7,0000.0,0005.39,0002.19,0001.04
2024-03-01 20:47:00,SystemResetWarning,0822.0,4.99,000.00,024.4,023.8,000.0,032.5,026.2,07.7,0000.0,0005.36,0002.20,0001.04
2024-03-01 20:48:00,SystemResetWarning,0822.0,5.00,000.00,024.5,023.8,000.0,032.5,026.2,07.8,0000.0,0005.17,0002.16,0001.03
2024-03-01 20:49:00,SystemResetWarning,0822.0,4.99,000.00,024.5,023.8,000.0,032.5,026.2,08.1,0000.0,0005.71,0002.10,0001.01
2024-03-01 20:50:00,SystemResetWarning,0822.0,5.00,000.00,024.5,023.8,000.0,032.5,026.2,07.9,0000.0,0007.70,0002.13,0001.01
2024-03-01 20:51:00,SystemResetWarning,0822.0,5.00,000.00,024.5,023.9,000.0,032.5,026.2,08.0,0000.0,0008.52,0002.17,0001.02
2024-03-01 20:52:00,SystemResetWarning,0821.9,5.02,000.00,024.5,023.9,000.0,032.6,026.2,08.1,0000.0,0008.68,0002.22,0001.02
2024-03-01 20:53:00,SystemResetWarning,0821.8,4.99,000.00,024.5,023.9,000.0,032.6,026.3,08.0,0000.0,0008.84,0002.24,0001.02
2024-03-01 20:54:00,SystemResetWarning,0821.8,4.99,000.00,024.5,023.9,000.0,032.6,026.3,07.8,0000.0,0008.64,0002.19,0001.02
2024-03-01 20:55:00,SystemResetWarning,0821.9,5.00,000.00,024.5,023.9,000.0,032.6,026.3,07.9,0000.0,0008.75,0002.18,0001.02
2024-03-01 20:56:00,SystemResetWarning,0821.9,5.02,000.00,024.5,023.9,000.0,032.6,026.3,07.9,0000.0,0009.02,0002.09,0001.02
2024-03-01 20:57:00,SystemResetWarning,0821.9,5.00,000.00,024.5,023.9,000.0,032.6,026.3,08.0,0000.0,0009.25,0002.05,0001.01
2024-03-01 20:58:00,SystemResetWarning,0821.9,4.99,000.00,024.6,023.9,000.0,032.6,026.3,08.0,0000.0,0009.29,0002.03,0001.01
2024-03-01 20:59:00,SystemResetWarning,0822.0,4.99,000.00,024.6,023.9,000.0,032.6,026.3,07.9,0000.0,0009.31,0002.05,0001.02
